This is the latest recevied weather packets stored in our database for station/object CE1JFB-10. If no packets are shown the sender has not sent any weather packets the latest 10 day(s).
| Time | Temp. | Humidity | Pressure | Rain* | Wind** | Luminosity | Snow |
|---|---|---|---|---|---|---|---|
| 1787436244 | 21.11° C | 63% | 1013.8 hPa | - | - | - | - |
| 1787432644 | 20.56° C | 65% | 1013.1 hPa | - | - | - | - |
| 1787429044 | 21.11° C | 64% | 1012.5 hPa | - | - | - | - |
| 1787425444 | 21.67° C | 63% | 1012.5 hPa | - | - | - | - |
| 1787421844 | 22.22° C | 63% | 1012.9 hPa | - | - | - | - |
| 1787418243 | 21.67° C | 64% | 1013.1 hPa | - | - | - | - |
| 1787414643 | 21.11° C | 65% | 1013.3 hPa | - | - | - | - |
| 1787411043 | 21.67° C | 65% | 1013.4 hPa | - | - | - | - |
| 1787407443 | 21.11° C | 68% | 1013.6 hPa | - | - | - | - |
| 1787403843 | 20.56° C | 69% | 1013.4 hPa | - | - | - | - |
| 1787400243 | 20° C | 70% | 1012.9 hPa | - | - | - | - |
| 1787396643 | 20° C | 71% | 1012.1 hPa | - | - | - | - |
| 1787393043 | 20° C | 71% | 1011.8 hPa | - | - | - | - |
| 1787389443 | 20° C | 71% | 1011.6 hPa | - | - | - | - |
| 1787385842 | 20° C | 72% | 1011.6 hPa | - | - | - | - |
| 1787382242 | 20° C | 72% | 1012 hPa | - | - | - | - |
| 1787378642 | 20.56° C | 71% | 1013.1 hPa | - | - | - | - |
| 1787375042 | 20.56° C | 70% | 1014.1 hPa | - | - | - | - |
| 1787371442 | 21.11° C | 70% | 1014.7 hPa | - | - | - | - |
| 1787367842 | 21.11° C | 70% | 1014.6 hPa | - | - | - | - |
| 1787364242 | 21.11° C | 70% | 1014.5 hPa | - | - | - | - |
| 1787360642 | 21.11° C | 70% | 1014.1 hPa | - | - | - | - |
| 1787357042 | 21.67° C | 69% | 1013.2 hPa | - | - | - | - |
* Rain since midnight (hover to see other rain measurements)
** Current wind speed in m/s (hover to see current wind gust speed)